DECAYED

OBJECT AE, 47960 (Decayed)

Orbit data source: Space-Track

You're viewing an Uncataloged Satellite

Recently launched and/or uncataloged satellites may have evolving metadata. Metadata may include but not limited to: Owner, Maufacturer, Bus, Motor, and Mission.

OBJECT AE, 47960 was a satellite in LEO that was launched on Mon, 22 Mar 2021 UTC via a SOYUZ-2-1A launch vehicle from the Tyuratam Missile And Space Complex (TTMTR). Unknown objects in Earth's orbit typically refer to objects detected orbiting the Earth but have not yet been identified or cataloged. These objects could be anything from previously untracked satellites, spent rocket stages, debris from satellite collisions, or even natural meteoroids temporarily captured by Earth's gravity. This object's orbit decayed before it could be identified.

Not visible in the next 10 days
Identifier
47960, 2021-022AE
Orbit
Decayed
Country
Flag of TBDTBD
Related business
Manufacturer
Sputniks
Mission
Decayed Commercial Imaging
Bus & Motor
CUBESAT 6U, Unknown motor
Mass
~10 kg wet, ~10 kg dry
Launch date (UTC)
2021-03-22 (5 years ago)
Launch vehicle
SOYUZ-2-1A
Launch site
Tyuratam Missile And Space Complex (TTMTR)
Object type
Unknown
Shape & HBR
Box + 2 Pan, 0.1 m
Radar Cross Section
0.035 m², Medium (>0.1 m² and < 1m²)

Expand to show TLE details & history
Last TLE update: 1 year ago

TLE from 1 year ago
0 OBJECT AE
1 47960U 21022AE  25102.18991407  .08920267  26050-5  10403-2 0  9994
2 47960  97.4008  17.2508 0008002 203.8387 156.2541 16.36719701224430
Epoch: 2025-04-12T04:33Z
TLE epoch observation values (Epoch: 2025-04-12T04:33:28.575Z)
Latitude
-0.00006°
Longitude
108.2446°
Altitude
182.591 km
Speed
7.794 km/s
True Right ascension
01h 09m 00s
True Declination
0° 00' 00"
Sunlit
Object was in daylight at epoch
Visualization orbit readout
Latitude
Unknown
Longitude
Unknown
Altitude
Unknown
Speed
Unknown
Apparent Right ascension
Unknown
Apparent Declination
Unknown
Sunlit
N/A
Visualization observer readout
Local Sidereal Time
21:48:32
Azimuth
Unknown
Elevation
Unknown
Doppler factor
Unknown
Orbital elements
Apogee altitude
176.596 km
Perigee altitude
166.114 km
Semi-major axis
6,549.492 km
Eccentricity
0.0008
Inclination
97.4008°
RAAN
17.2508°
Arg. of periapsis
203.8387°
True anomaly
156.29099°
Mean anomaly
156.2541°
Eccentric anomaly
156.27255°
Mean motion
4.09479 °/min
Orbital period
87.92 mins
BSTAR
0.0010403
Loading maneuver chart data...
Computing Atmospheric mass density...

Documentation

Showing up to 5 results
|